Meteo Giornale » Osservazioni meteo Stati Uniti (USA) » Alpena
ore: 16:54 - Osservazioni Meteo Alpena
Lat. 45° 4' N Lon. 83° 33' W Alt. 210 metri s.l.m.
24 °C
Coperto
Temp. 24 Ore
19 °C
26 °C
Est/Sud-Est
16.7 Km/h
Dew point 21 °C
Umidità 83 %
Visibilità 10 Km
Il sole sorge alle ore 06:55
Il sole tramonta alle ore 20:13
| Data e Ora | Cielo e Fenomeni | T °C | DP °C | Um. % | Pres. hPa | Vis. km | Vento km/h | |
|---|---|---|---|---|---|---|---|---|
| Oggi h: 16:54 | Coperto | 24 | 21 | 83 | 1012 | 10 | E/SE 16.7 | |
| Oggi h: 15:54 | Molto Nuvoloso | 26 | 21 | 73 | 1012 | 10 | S/SE 13 | |
| Oggi h: 14:54 | Molto Nuvoloso | 26 | 21 | 73 | 1013 | 10 | N 5.5 | |
| Oggi h: 13:54 | Poco Nuvoloso | 26 | 21 | 73 | 1013 | 10 | S/SE 11.1 | |
| Oggi h: 13:50 | Nuvoloso | 26 | 21 | 73 | 1014 | 10 | S 7.4 | |
| Oggi h: 13:35 | Molto Nuvoloso | 24 | 21 | 83 | 1014 | 10 | S 14.8 | |
| Oggi h: 13:23 | Molto Nuvoloso | 24 | 21 | 83 | 1015 | 10 | S 14.8 | |
| Oggi h: 12:54 | Poco Nuvoloso | 22 | 21 | 94 | 1015 | 10 | S 13 | |
| Oggi h: 11:54 | Pioggia | 21 | 20 | 94 | 1015 | 13 | S 7.4 | |
| Oggi h: 10:54 | Pioggia Foschia | 20 | 19 | 93 | 1015 | 8 | N 5.5 | |
| Oggi h: 10:27 | Pioggia Foschia | 19 | 19 | 100 | 1015 | 5 | N 5.5 | |
| Oggi h: 10:19 | Pioggia Foschia | 19 | 19 | 100 | 1015 | 2 | S 11.1 | |
| Oggi h: 10:05 | Pioggia Foschia | 19 | 19 | 100 | 1016 | 5 | SO 7.4 | |
| Oggi h: 09:54 | Pioggia Foschia | 19 | 19 | 100 | 1015 | 5 | S/SO 9.3 | |
| Oggi h: 09:15 | Pioggia Foschia | 19 | 19 | 100 | 1015 | 2 | N 0 | |
| Oggi h: 08:54 | Pioggia Nebbia | 19 | 19 | 100 | 1014 | 2 | SE 7.4 | |
| Oggi h: 08:29 | Nebbia | 19 | 19 | 100 | 1015 | 2 | S/SE 7.4 | |
| Oggi h: 07:54 | Nebbia | 19 | 19 | 100 | 1014 | 2 | E/SE 11.1 | |
| Oggi h: 06:54 | Nebbia | 19 | 19 | 100 | 1015 | 2 | N 5.5 | |
| Oggi h: 06:33 | Foschia | 19 | 19 | 100 | 1015 | 5 | E 7.4 | |
| Oggi h: 05:54 | Foschia | 19 | 19 | 100 | 1015 | 5 | N 5.5 | |
| Oggi h: 05:22 | Foschia | 19 | 19 | 100 | 1016 | 2 | N 0 | |
| Oggi h: 04:54 | Foschia | 19 | 19 | 100 | 1016 | 5 | N 0 | |
| Oggi h: 03:54 | Foschia | 19 | 19 | 100 | 1015 | 6 | E/SE 7.4 | |
| Oggi h: 02:54 | Foschia | 19 | 19 | 100 | 1015 | 6 | E 11.1 | |
| Oggi h: 01:54 | Foschia | 19 | 19 | 100 | 1016 | 10 | E/SE 7.4 | |
| Oggi h: 00:54 | Foschia | 19 | 19 | 100 | 1016 | 8 | E/SE 9.3 | |
| Ieri h: 23:54 | Foschia | 19 | 19 | 100 | 1016 | 8 | E/NE 9.3 | |
| Ieri h: 23:39 | Foschia | 19 | 19 | 100 | 1016 | 8 | N 5.5 | |
| Ieri h: 23:34 | Foschia | 19 | 19 | 100 | 1016 | 8 | N 5.5 | |
| Ieri h: 22:54 | Pioggia Foschia | 19 | 19 | 100 | 1016 | 10 | N 0 | |
| Ieri h: 21:54 | Coperto | 19 | 19 | 100 | 1016 | 14 | E/SE 7.4 | |
| Ieri h: 21:51 | Coperto | 19 | 19 | 100 | 1016 | 14 | N 5.5 | |
| Ieri h: 21:06 | Coperto | 19 | 19 | 100 | 1016 | 10 | N 5.5 | |
| Ieri h: 20:54 | Molto Nuvoloso | 19 | 19 | 100 | 1016 | 10 | N 0 | |
| Ieri h: 20:05 | Molto Nuvoloso | 20 | 19 | 93 | 1015 | 13 | SE 7.4 | |
| Ieri h: 19:54 | Molto Nuvoloso | 20 | 19 | 93 | 1015 | 13 | E/SE 7.4 | |
| Ieri h: 18:54 | Coperto | 21 | 19 | 88 | 1016 | 14 | E/NE 7.4 | |



